Wetbulb
37.31 38.02 39.35 40.26 39.72 41.91 42.72 43.87 44.50 45.98 46.86 46.74 46.63 46.80 48.01 49.47 51.30 52.81 53.98 54.18 56.35 60.55 65.76 64.95 65.12 64.76 64.14 64.77 64.02 64.34 64.02 62.81
35.64 36.97 37.73 38.01 38.93 40.58 41.31 42.17 43.15 44.77 44.54 43.34 43.10 44.14 46.31 47.61 48.46 50.92 51.95 52.67 54.08 56.82 61.43 65.42 65.77 64.76 64.02 63.65 64.21 63.47 62.89 62.40
35.07 34.80 34.82 34.84 36.47 38.71 40.60 41.31 41.94 43.44 44.08 43.67 43.40 44.34 45.40 46.31 47.12 48.95 49.92 51.19 52.38 54.49 56.24 60.91 65.49 65.04 64.64 64.47 63.89 62.27 62.09 62.37
32.23 33.61 33.04 33.21 33.64 35.69 38.63 40.68 41.13 42.82 42.74 43.55 43.35 43.37 43.68 43.95 44.66 46.12 47.70 49.52 51.54 52.64 54.15 55.42 64.57 65.15 64.13 64.10 63.28 62.59 60.91 62.01
31.68 31.77 32.06 31.97 32.62 34.84 36.71 39.06 39.74 42.16 41.67 41.40 41.87 40.80 39.97 42.33 44.00 45.38 46.41 47.56 50.07 51.18 51.73 53.20 57.96 64.71 64.09 64.12 63.93 62.51 61.77 59.93
30.06 30.60 31.01 32.18 32.70 33.14 34.68 37.14 38.55 40.34 40.76 41.42 41.40 40.73 41.53 42.42 43.53 43.97 45.06 46.47 47.98 50.07 50.91 51.51 53.23 58.68 64.33 63.70 63.59 62.73 62.43 61.46
31.00 31.99 32.85 32.20 32.17 32.64 33.57 35.38 37.43 39.53 39.05 40.76 41.17 40.95 40.64 40.82 41.42 42.10 43.29 44.72 45.75 47.98 49.17 50.61 52.60 54.03 57.70 63.72 63.57 63.29 62.44 61.91
29.73 29.88 30.20 31.65 31.48 31.88 34.69 34.91 35.95 38.30 38.02 38.61 41.15 41.11 41.56 40.71 40.99 41.31 42.15 42.14 43.66 45.04 47.57 49.49 49.92 52.20 53.67 60.24 63.20 63.00 62.75 61.61
29.10 30.75 30.36 30.87 32.45 32.19 33.04 34.12 35.01 37.13 37.85 37.70 40.37 41.56 41.81 42.07 41.50 41.55 41.80 41.48 42.67 44.56 45.68 47.76 50.23 50.52 52.41 55.24 61.93 62.92 62.79 62.02
29.23 30.24 30.85 30.98 31.24 32.31 32.62 33.37 34.77 36.27 38.21 37.45 37.74 40.79 40.96 41.42 42.35 41.96 41.65 41.67 42.71 43.66 44.85 46.03 49.15 50.43 51.50 53.18 56.00 62.42 62.34 62.24
29.08 29.72 30.61 31.61 31.74 32.01 32.87 33.64 34.25 35.83 36.11 36.43 38.38 39.99 41.14 41.69 42.44 41.60 41.38 41.59 42.23 42.84 43.37 45.73 48.65 48.68 50.84 52.15 54.10 62.41 62.00 62.18
28.57 29.03 30.39 30.85 31.40 31.48 32.27 33.33 34.03 34.29 34.88 35.51 37.26 39.26 40.25 41.25 41.13 41.52 41.63 42.01 42.80 43.37 43.88 45.40 47.59 48.55 49.84 50.26 50.43 53.75 61.69 61.73
28.18 29.23 30.12 30.39 30.69 31.12 31.98 32.61 33.82 34.31 34.72 35.34 35.58 38.24 39.23 40.04 40.45 41.46 41.53 41.19 42.74 43.42 44.54 45.65 47.53 44.29 44.10 43.86 45.43 47.60 50.95 60.52
29.10 29.51 30.13 30.44 30.57 31.59 32.12 32.19 33.09 34.37 34.67 34.53 34.96 37.18 38.86 38.87 40.37 40.76 41.28 41.09 42.01 42.99 44.19 44.67 42.21 41.75 40.70 41.46 41.97 43.80 46.48 50.58
29.42 28.95 29.94 30.78 31.78 32.51 31.90 32.59 33.31 33.89 34.57 34.16 34.08 36.15 38.47 38.74 40.37 40.70 40.69 40.97 41.29 42.21 43.16 43.78 42.23 40.58 40.00 39.93 40.20 41.02 44.21 47.94
30.17 30.01 30.06 30.75 30.49 30.87 32.36 32.19 33.19 34.22 34.53 34.61 34.96 35.81 38.12 38.22 38.96 40.81 40.46 40.75 41.25 42.24 42.23 42.78 40.99 39.70 38.61 37.99 38.65 40.04 41.99 45.73
31.51 32.53 31.34 30.95 31.40 31.13 32.46 32.40 33.13 33.84 33.31 33.49 35.26 35.83 37.15 37.41 38.78 39.69 39.80 40.21 40.57 41.72 41.10 41.81 37.73 38.11 36.87 37.22 37.32 40.35 44.85 46.37
31.78 30.64 30.37 30.54 30.23 31.82 30.69 31.63 33.27 32.56 32.70 33.83 34.60 35.51 36.40 37.39 39.18 39.04 38.93 39.18 39.91 39.65 40.50 40.53 36.95 35.95 35.98 36.69 36.87 41.36 41.85 43.51
31.07 29.88 29.69 30.07 30.77 30.94 31.65 32.21 32.01 32.14 33.00 33.27 34.56 35.24 35.73 36.94 38.48 37.08 38.39 38.68 39.13 38.79 39.07 39.15 38.02 35.65 35.31 35.83 36.09 39.58 40.07 42.35
MSLP
1027.60 1027.39 1027.04 1026.75 1026.36 1025.95 1025.51 1025.00 1024.44 1023.72 1023.25 1022.90 1022.66 1021.92 1021.41 1020.80 1020.12 1019.73 1019.02 1018.24 1017.38 1016.58 1015.93 1015.98 1016.37 1016.94 1017.37 1017.82 1018.46 1018.94 1019.40 1019.45
1028.13 1027.87 1027.54 1027.32 1027.08 1026.75 1026.29 1025.81 1025.29 1024.73 1023.93 1023.60 1023.10 1022.40 1021.87 1021.25 1020.66 1020.06 1019.46 1018.94 1018.09 1017.23 1016.61 1015.96 1016.13 1016.61 1017.00 1017.58 1018.10 1018.47 1018.83 1019.30
1028.80 1028.52 1028.22 1028.02 1027.73 1027.36 1026.93 1026.54 1025.94 1025.32 1024.88 1024.40 1023.96 1023.25 1022.50 1021.83 1021.34 1020.57 1020.04 1019.40 1018.72 1017.96 1017.46 1016.67 1016.17 1016.48 1016.82 1017.16 1017.76 1018.19 1017.84 1018.83
1029.26 1029.07 1028.80 1028.50 1028.27 1027.95 1027.55 1027.11 1026.59 1025.85 1025.17 1024.70 1024.06 1023.56 1022.80 1022.00 1021.55 1021.08 1020.54 1019.95 1019.44 1018.60 1017.84 1017.19 1016.34 1016.34 1016.62 1016.92 1017.42 1017.74 1018.22 1019.00
1029.38 1029.32 1029.14 1028.78 1028.58 1028.10 1027.78 1027.46 1026.85 1026.15 1025.61 1025.02 1024.46 1024.08 1023.51 1023.01 1022.21 1021.67 1021.02 1020.40 1019.64 1019.10 1018.39 1017.90 1016.86 1016.24 1016.51 1016.68 1017.25 1017.61 1018.18 1018.54
1029.66 1029.52 1029.13 1028.89 1028.65 1028.35 1028.01 1027.66 1027.19 1026.55 1026.12 1025.44 1024.83 1024.31 1023.90 1023.36 1022.70 1021.84 1021.18 1020.60 1020.09 1019.21 1018.87 1018.22 1017.70 1016.83 1016.30 1016.53 1016.85 1017.17 1017.54 1018.03
1029.76 1029.52 1029.07 1028.98 1028.76 1028.51 1028.17 1027.85 1027.47 1026.84 1026.35 1025.83 1025.20 1024.54 1023.97 1023.42 1022.91 1022.26 1021.59 1020.94 1020.39 1019.82 1019.29 1018.96 1018.21 1017.45 1016.80 1016.24 1016.52 1016.91 1017.35 1017.74
1030.05 1029.80 1029.65 1029.25 1028.97 1028.74 1028.24 1027.93 1027.57 1027.00 1026.51 1026.07 1025.49 1024.88 1024.22 1023.67 1023.26 1022.69 1022.18 1021.59 1020.95 1020.41 1019.81 1018.96 1018.47 1017.89 1017.12 1016.37 1016.15 1016.32 1016.63 1017.08
1030.25 1029.90 1029.72 1029.42 1029.10 1028.74 1028.41 1028.02 1027.56 1027.14 1026.66 1026.30 1025.69 1025.21 1024.56 1023.86 1023.41 1023.03 1022.64 1022.11 1021.40 1020.69 1020.13 1019.37 1018.53 1018.05 1017.30 1016.58 1015.98 1015.94 1016.16 1016.50
1030.16 1029.89 1029.71 1029.34 1029.08 1028.77 1028.45 1028.02 1027.56 1027.14 1026.82 1026.47 1025.98 1025.43 1024.85 1024.08 1023.54 1023.13 1022.79 1022.25 1021.44 1020.72 1020.14 1019.41 1018.65 1017.92 1017.53 1016.90 1016.31 1015.54 1015.71 1016.00
1030.02 1029.75 1029.61 1029.25 1028.95 1028.63 1028.27 1027.85 1027.51 1027.22 1026.92 1026.61 1026.14 1025.67 1025.10 1024.49 1023.85 1023.26 1022.86 1022.24 1021.49 1020.89 1020.25 1019.41 1018.65 1018.02 1017.43 1016.99 1016.26 1015.23 1015.41 1015.57
1029.83 1029.64 1029.28 1029.03 1028.72 1028.46 1028.16 1027.76 1027.44 1027.27 1026.99 1026.70 1026.26 1025.74 1025.15 1024.56 1024.10 1023.59 1023.05 1022.33 1021.53 1020.96 1020.32 1019.65 1018.85 1018.30 1017.80 1016.96 1016.69 1015.82 1014.93 1015.24
1029.63 1029.41 1029.12 1028.81 1028.50 1028.26 1027.98 1027.63 1027.49 1027.26 1026.96 1026.68 1026.30 1025.84 1025.21 1024.61 1024.09 1023.59 1023.09 1022.50 1021.77 1021.05 1020.30 1019.65 1019.03 1018.99 1018.61 1018.09 1017.48 1016.85 1016.12 1014.92
1029.38 1029.10 1028.95 1028.65 1028.35 1028.05 1027.77 1027.66 1027.49 1027.19 1026.92 1026.63 1026.31 1025.89 1025.38 1024.77 1024.27 1023.70 1023.07 1022.56 1021.89 1021.11 1020.49 1019.91 1019.76 1019.56 1019.14 1018.76 1018.09 1017.31 1016.52 1015.77
1029.21 1028.93 1028.66 1028.33 1028.03 1027.89 1027.73 1027.68 1027.44 1027.23 1026.90 1026.63 1026.31 1025.84 1025.41 1024.93 1024.46 1023.96 1023.38 1022.78 1022.12 1021.43 1020.93 1020.46 1020.29 1020.03 1019.57 1018.94 1018.25 1017.70 1016.87 1016.15
1028.95 1028.68 1028.27 1028.11 1027.94 1027.84 1027.77 1027.75 1027.66 1027.38 1027.15 1026.87 1026.38 1025.92 1025.41 1024.93 1024.60 1024.13 1023.72 1023.03 1022.37 1021.79 1021.35 1021.01 1020.91 1020.56 1020.22 1019.41 1018.54 1017.80 1017.21 1016.23
1028.60 1028.31 1027.98 1027.95 1027.82 1027.88 1027.92 1028.01 1027.91 1027.60 1027.34 1027.00 1026.56 1026.09 1025.54 1024.94 1024.66 1024.34 1023.95 1023.28 1022.63 1022.08 1021.66 1021.35 1021.59 1021.26 1020.71 1019.74 1018.74 1017.87 1016.97 1016.23
1028.08 1027.83 1027.90 1027.85 1027.85 1027.91 1028.18 1028.24 1027.99 1027.73 1027.43 1027.03 1026.53 1026.12 1025.62 1024.98 1024.76 1024.43 1024.18 1023.64 1023.08 1022.50 1022.10 1021.74 1021.98 1021.88 1021.02 1019.89 1018.80 1018.12 1017.53 1017.11
1027.54 1027.69 1027.71 1027.67 1027.83 1028.00 1028.16 1028.10 1027.97 1027.71 1027.42 1027.02 1026.48 1026.04 1025.65 1025.16 1024.90 1024.74 1024.47 1024.09 1023.62 1023.19 1022.77 1022.47 1022.35 1022.35 1021.42 1020.45 1019.45 1018.79 1018.19 1017.46
Wind_Speed
10 12 14 13 10 13 13 13 15 14 11 10 10 9 9 10 9 9 14 11 14 12 4 6 7 6 6 5 7 7 4 5
9 9 12 11 12 14 13 15 15 10 11 11 10 11 10 9 10 13 13 13 14 12 8 3 5 7 7 9 5 8 6 3
10 9 9 9 11 13 14 14 15 10 8 7 8 9 9 8 9 11 13 13 14 12 11 8 6 4 7 8 8 2 2 4
8 8 8 8 9 9 13 13 14 10 10 7 8 8 8 9 10 10 12 13 12 12 12 11 5 5 5 7 6 6 6 5
6 7 7 7 7 8 9 11 13 11 10 10 13 10 11 11 9 10 9 12 12 12 13 12 12 5 6 7 7 7 6 5
6 6 6 6 7 7 7 11 13 9 10 11 10 11 8 9 9 13 12 10 12 13 12 13 12 8 6 7 8 10 9 8
7 6 6 6 6 7 7 8 12 9 8 11 12 12 13 10 11 10 10 11 10 11 13 9 10 9 9 6 8 9 9 7
7 8 7 7 7 6 6 7 10 9 7 8 11 12 11 10 11 10 11 11 9 11 12 11 9 10 10 8 7 10 10 10
7 7 6 7 7 6 6 7 8 9 7 8 10 11 8 7 8 9 7 10 10 12 12 11 9 10 9 8 6 6 8 8
6 7 6 7 7 7 5 6 7 8 8 6 8 10 11 9 10 9 8 12 10 12 12 12 10 9 10 10 7 7 7 10
7 6 6 6 6 6 7 6 5 5 6 6 7 9 10 9 9 10 10 11 13 13 11 12 10 8 9 9 7 6 8 7
6 5 5 6 6 6 6 6 6 5 6 6 7 9 9 8 8 10 9 11 11 12 11 11 10 9 10 10 10 10 8 9
6 5 7 6 6 7 6 6 5 5 5 6 6 8 8 9 9 10 10 11 11 12 11 10 9 10 10 10 11 10 10 10
6 6 7 5 5 6 6 5 5 6 6 6 6 8 8 8 8 10 10 11 11 11 10 9 10 10 11 10 10 11 11 10
6 6 7 4 5 5 5 5 6 6 6 7 6 6 8 8 7 9 11 11 11 9 9 8 9 11 12 13 12 11 10 9
6 7 6 2 5 5 5 6 6 6 7 8 8 8 9 5 6 9 11 11 10 8 8 6 10 11 11 14 12 10 9 9
7 10 5 5 4 4 5 6 5 5 6 7 8 9 11 6 5 10 10 10 10 7 8 7 13 10 21 22 16 7 8 8
7 3 3 4 3 6 6 5 5 5 6 7 6 8 9 6 7 9 9 10 10 11 10 10 12 15 25 25 22 10 10 9
2 3 3 3 4 6 6 4 5 5 5 7 7 6 7 8 8 8 8 9 7 8 9 11 10 13 26 26 20 12 10 9
Wind_Direction
18 16 12 2 13 12 11 7 356 1 1 5 358 353 351 345 359 352 350 349 349 346 191 184 174 172 174 159 186 194 203 182
16 16 11 7 15 12 9 8 354 9 1 2 357 354 351 346 350 349 357 352 352 350 346 166 169 185 177 190 169 200 174 167
12 11 6 4 18 14 9 6 355 3 3 359 355 346 347 349 343 351 351 353 351 350 340 326 179 173 173 175 180 145 132 120
10 8 2 6 17 10 7 6 352 357 353 352 355 353 353 348 353 352 349 349 351 352 348 340 249 175 182 181 170 168 180 154
15 6 358 9 8 10 359 3 350 354 346 356 1 360 355 351 340 343 346 345 349 353 352 337 338 182 186 184 171 157 135 172
9 355 7 10 16 7 1 358 346 341 360 354 352 359 349 345 345 344 347 349 347 355 351 346 340 330 188 185 168 176 179 181
358 351 17 9 11 7 6 4 342 336 3 350 350 351 354 350 352 346 346 346 344 345 346 340 335 338 333 197 189 187 188 191
10 11 8 352 360 4 7 0 346 332 2 351 352 349 344 354 352 347 346 343 340 340 336 338 330 330 331 314 197 199 194 194
4 1 5 352 346 352 7 354 343 333 3 341 348 347 343 339 349 349 345 341 332 330 330 327 332 326 318 317 269 203 192 200
355 356 357 352 341 340 347 347 340 337 357 347 342 350 344 344 340 351 349 339 330 331 326 322 322 332 323 326 314 207 198 204
345 345 348 343 332 329 333 337 329 342 0 339 345 342 337 341 347 346 349 338 337 334 325 322 320 327 330 318 308 240 202 203
325 326 337 322 330 331 322 328 339 359 352 337 340 333 336 336 345 345 347 335 332 329 325 324 321 337 347 352 337 327 215 214
317 331 324 313 324 323 323 325 10 360 347 334 329 328 332 344 349 348 348 339 334 331 332 330 1 12 0 350 338 332 326 231
316 319 303 312 325 310 326 358 8 352 339 330 328 332 338 342 349 347 347 342 338 340 346 18 25 13 5 348 340 330 328 318
312 316 297 295 313 322 353 19 359 340 338 336 330 332 339 346 351 352 347 342 341 349 353 18 22 14 3 353 343 326 321 314
289 292 292 12 346 353 36 12 6 1 4 350 346 335 334 335 0 354 354 343 343 354 359 35 26 21 4 349 338 323 304 310
284 290 6 14 353 46 40 31 21 9 352 344 343 339 334 326 14 352 357 348 351 357 10 9 32 18 355 357 353 325 326 328
262 13 42 354 36 70 57 41 12 355 348 330 329 333 334 335 9 360 10 357 359 12 16 15 43 21 3 4 354 10 5 352
56 73 14 336 84 71 72 48 2 347 321 331 317 329 340 356 356 14 27 1 11 15 22 28 38 23 9 2 355 9 4 3